Weather History for Corpus Christi, TX

Change the Weather History Date:

Monday, January 28, 2013

  Actual Average Record
Temperature  
Mean Temperature 76 °F 58 °F  
Max Temperature 81 °F 68 °F 83 °F (1977)
Min Temperature 71 °F 48 °F 25 °F (1948)
Degree Days  
Heating Degree Days 0 8  
Month to date heating degree days 194 247  
Since 1 July heating degree days 369 598  
Cooling Degree Days 11 1  
Month to date cooling degree days 51 28  
Year to date cooling degree days 51 28  
Growing Degree Days 26 (Base 50)    
Moisture  
Dew Point 68 °F    
Average Humidity 79    
Maximum Humidity 90    
Minimum Humidity 67    
Precipitation  
Precipitation T in 0.05 in 0.70 in (1931)
Month to date precipitation 1.25 1.40  
Year to date precipitation 1.25 1.40  
Snow  
Snow 0.00 in - - ()
Month to date snowfall 0.0  
Since 1 July snowfall 0.0  
Snow Depth 0.00 in    
Sea Level Pressure  
Sea Level Pressure 29.97 in    
Wind  
Wind Speed 23 mph (SSE)    
Max Wind Speed 33 mph    
Max Gust Speed 40 mph    
Visibility 9 miles    
Events      
T = Trace of Precipitation, MM = Missing Value Source: NWS Daily Summary

Daily Weather History Graph

Daily Weather History Graph

Search for Another Location

Airport:

Trip Planner

Search our weather history database for the weather conditions in past years. The results will help you decide how hot, cold, wet, or windy it might be!

Date:

Astronomy

Jan. 28, 2013 Rise Set
Actual Time 7:18 AM CST 6:07 PM CST
Civil Twilight 6:53 AM CST 6:32 PM CST
Nautical Twilight 6:25 AM CST 7:00 PM CST
Astronomical Twilight 5:57 AM CST 7:28 PM CST
Moon 7:49 PM CST (1/28) 7:57 AM CST (1/28)
Length of Visible Light 11h 38m
Length of Day
10h 49m
Full, 98% of the Moon is Illuminated
Jan 28
Full
Feb 3
Last Quarter
Feb 10
New
Feb 17
First Quarter
Feb 25
Full

Hourly Weather History & Observations

Time (CST) Temp. Heat Index Dew Point Humidity Pressure Visibility Wind Dir Wind Speed Gust Speed Precip Events Conditions
12:51 AM 72.0 °F - 68.0 °F 87% 30.04 in 9.0 mi SSE 18.4 mph - N/A   Overcast
1:51 AM 71.1 °F - 68.0 °F 90% 30.02 in 8.0 mi SSE 16.1 mph - 0.00 in   Overcast
2:51 AM 71.1 °F - 68.0 °F 90% 30.01 in 8.0 mi SSE 21.9 mph 25.3 mph 0.00 in   Overcast
3:51 AM 72.0 °F - 68.0 °F 87% 30.00 in 8.0 mi SSE 19.6 mph - N/A   Overcast
4:45 AM 71.6 °F - 66.2 °F 83% 29.99 in 9.0 mi SSE 19.6 mph - N/A   Overcast
4:51 AM 72.0 °F - 66.9 °F 84% 29.99 in 9.0 mi SSE 20.7 mph - N/A   Overcast
5:51 AM 71.1 °F - 66.9 °F 87% 29.99 in 8.0 mi SSE 21.9 mph - N/A   Mostly Cloudy
6:51 AM 71.1 °F - 68.0 °F 90% 30.01 in 8.0 mi SSE 19.6 mph - N/A   Overcast
7:51 AM 72.0 °F - 66.9 °F 84% 30.04 in 6.0 mi SSE 13.8 mph - N/A   Haze
8:51 AM 72.0 °F - 68.0 °F 87% 30.06 in 6.0 mi SSE 17.3 mph - N/A   Overcast
9:51 AM 73.9 °F - 68.0 °F 82% 30.08 in 8.0 mi SSE 18.4 mph - N/A   Overcast
10:12 AM 75.2 °F - 69.8 °F 83% 30.08 in 9.0 mi SSE 19.6 mph 26.5 mph N/A   Mostly Cloudy
10:51 AM 75.9 °F - 68.0 °F 76% 30.06 in 10.0 mi SSE 26.5 mph 34.5 mph N/A   Mostly Cloudy
11:51 AM 75.9 °F - 66.9 °F 74% 30.05 in 10.0 mi SSE 23.0 mph 33.4 mph N/A   Overcast
11:58 AM 75.2 °F - 66.2 °F 73% 30.04 in 10.0 mi SSE 27.6 mph - N/A   Overcast
12:51 PM 78.1 °F - 66.9 °F 68% 30.01 in 10.0 mi SSE 29.9 mph 34.5 mph N/A   Mostly Cloudy
1:51 PM 79.0 °F - 66.9 °F 66% 29.96 in 10.0 mi SSE 28.8 mph 38.0 mph N/A   Overcast
2:22 PM 78.8 °F - 66.2 °F 65% 29.95 in 10.0 mi SSE 32.2 mph 36.8 mph N/A   Overcast
2:51 PM 80.1 °F 82.7 °F 68.0 °F 67% 29.94 in 10.0 mi SSE 28.8 mph 40.3 mph N/A   Mostly Cloudy
3:51 PM 80.1 °F 82.7 °F 68.0 °F 67% 29.92 in 10.0 mi SSE 28.8 mph 38.0 mph N/A   Scattered Clouds
4:51 PM 78.1 °F - 68.0 °F 71% 29.91 in 10.0 mi SSE 27.6 mph 39.1 mph N/A   Mostly Cloudy
5:07 PM 77.0 °F - 68.0 °F 74% 29.91 in 10.0 mi SSE 27.6 mph 35.7 mph N/A   Scattered Clouds
5:22 PM 75.2 °F - 68.0 °F 78% 29.91 in 10.0 mi SSE 31.1 mph 38.0 mph N/A   Mostly Cloudy
5:48 PM 75.2 °F - 68.0 °F 78% 29.90 in 9.0 mi SSE 29.9 mph 38.0 mph N/A   Scattered Clouds
5:51 PM 75.0 °F - 68.0 °F 79% 29.90 in 9.0 mi SSE 25.3 mph 38.0 mph N/A   Scattered Clouds
6:06 PM 73.4 °F - 68.0 °F 83% 29.90 in 8.0 mi SSE 25.3 mph 35.7 mph N/A   Mostly Cloudy
6:25 PM 73.4 °F - 68.0 °F 83% 29.91 in 8.0 mi SSE 25.3 mph 32.2 mph N/A   Mostly Cloudy
6:51 PM 73.0 °F - 68.0 °F 84% 29.91 in 9.0 mi SSE 23.0 mph 33.4 mph N/A   Mostly Cloudy
7:47 PM 73.4 °F - 68.0 °F 83% 29.92 in 9.0 mi SSE 25.3 mph - N/A   Scattered Clouds
7:51 PM 73.0 °F - 68.0 °F 84% 29.91 in 9.0 mi SSE 25.3 mph - N/A   Scattered Clouds
8:08 PM 73.4 °F - 68.0 °F 83% 29.92 in 9.0 mi SSE 24.2 mph 32.2 mph N/A   Overcast
8:41 PM 73.4 °F - 68.0 °F 83% 29.93 in 9.0 mi SSE 21.9 mph - N/A   Overcast
8:51 PM 73.0 °F - 68.0 °F 84% 29.93 in 9.0 mi SSE 20.7 mph 28.8 mph N/A   Overcast
9:10 PM 73.4 °F - 68.0 °F 83% 29.93 in 9.0 mi SSE 19.6 mph 27.6 mph N/A   Overcast
9:51 PM 73.0 °F - 69.1 °F 87% 29.94 in 9.0 mi SSE 20.7 mph 27.6 mph N/A   Overcast
10:51 PM 73.0 °F - 69.1 °F 87% 29.93 in 8.0 mi SSE 26.5 mph 31.1 mph N/A   Overcast
11:09 PM 71.6 °F - 68.0 °F 88% 29.92 in 7.0 mi SSE 21.9 mph 28.8 mph N/A   Overcast
11:51 PM 72.0 °F - 69.1 °F 91% 29.91 in 8.0 mi South 19.6 mph 28.8 mph N/A   Overcast